• In Latvia
  • List of Countries
  • For 7 days
  • Water Temperature
  • Satellite Maps
  • Weather Map
  • Weather Widgets
  • user-avatar
    Login

    Hourly Weather Hobart

    Today, 23 January, Tuesday

    Time Temperature Precipitation Wind Pressure Humidity
    00:00 +13°C° 0 mm 2 mps 742 mmHg 93%
    01:00 +12°C° 0 mm 2 mps 742 mmHg 94%
    02:00 +12°C° 0 mm 2 mps 742 mmHg 95%
    03:00 +12°C° 0 mm 2 mps 742 mmHg 95%
    04:00 +12°C° 0 mm 2 mps 742 mmHg 94%
    05:00 +13°C° 0 mm 2 mps 742 mmHg 88%
    06:00 +14°C° 0 mm 2 mps 742 mmHg 81%
    07:00 +15°C° 0 mm 2 mps 742 mmHg 75%
    08:00 +17°C° 0 mm 3 mps 742 mmHg 67%
    09:00 +18°C° 0 mm 3 mps 743 mmHg 60%
    10:00 +19°C° 0 mm 3 mps 743 mmHg 52%
    11:00 +21°C° 0 mm 3 mps 743 mmHg 48%
    12:00 +22°C° 0 mm 3 mps 743 mmHg 43%
    13:00 +25°C° 0 mm 3 mps 743 mmHg 38%
    14:00 +25°C° 0 mm 3 mps 743 mmHg 38%
    15:00 +25°C° 0 mm 4 mps 743 mmHg 37%
    16:00 +25°C° 0 mm 4 mps 743 mmHg 37%
    17:00 +22°C° 0 mm 3 mps 743 mmHg 44%
    18:00 +21°C° 0 mm 3 mps 743 mmHg 51%
    19:00 +19°C° 0 mm 3 mps 744 mmHg 58%
    20:00 +17°C° 0 mm 3 mps 744 mmHg 69%
    21:00 +15°C° 0 mm 2 mps 744 mmHg 79%
    22:00 +13°C° 0 mm 2 mps 744 mmHg 89%
    23:00 +13°C° 0 mm 2 mps 744 mmHg 91%

    Tomorrow, 24 January, Wednesday

    Time Temperature Precipitation Wind Pressure Humidity
    00:00 +12°C° 0 mm 2 mps 743 mmHg 92%
    01:00 +12°C° 0 mm 2 mps 743 mmHg 94%
    02:00 +12°C° 0 mm 2 mps 743 mmHg 94%
    03:00 +12°C° 0 mm 2 mps 743 mmHg 95%
    04:00 +11°C° 0 mm 1 mps 742 mmHg 95%
    05:00 +13°C° 0 mm 1 mps 742 mmHg 87%
    06:00 +14°C° 0 mm 2 mps 743 mmHg 78%
    07:00 +15°C° 0 mm 2 mps 743 mmHg 70%
    08:00 +18°C° 0 mm 2 mps 743 mmHg 59%
    09:00 +21°C° 0 mm 2 mps 743 mmHg 49%
    10:00 +25°C° 0 mm 2 mps 743 mmHg 38%
    11:00 +26°C° 0 mm 2 mps 743 mmHg 35%
    12:00 +27°C° 0 mm 3 mps 743 mmHg 33%
    13:00 +29°C° 0 mm 4 mps 743 mmHg 30%
    14:00 +28°C° 0 mm 4 mps 743 mmHg 32%
    15:00 +28°C° 0 mm 4 mps 743 mmHg 34%
    16:00 +28°C° 0 mm 5 mps 743 mmHg 35%
    17:00 +25°C° 0 mm 4 mps 743 mmHg 44%
    18:00 +22°C° 0 mm 3 mps 743 mmHg 54%
    19:00 +20°C° 0 mm 3 mps 744 mmHg 63%
    20:00 +18°C° 0 mm 3 mps 744 mmHg 72%
    21:00 +17°C° 0 mm 2 mps 745 mmHg 81%
    22:00 +15°C° 0 mm 2 mps 746 mmHg 90%
    23:00 +15°C° 0 mm 2 mps 746 mmHg 90%

    Day after tomorrow, 25 January, Thursday

    Time Temperature Precipitation Wind Pressure Humidity
    00:00 +15°C° 0 mm 2 mps 745 mmHg 91%
    01:00 +15°C° 0 mm 2 mps 745 mmHg 92%
    02:00 +15°C° 0 mm 2 mps 745 mmHg 93%
    03:00 +15°C° 0 mm 1 mps 745 mmHg 94%
    04:00 +15°C° 0 mm 1 mps 745 mmHg 95%
    05:00 +16°C° 0 mm 2 mps 745 mmHg 92%
    06:00 +16°C° 0 mm 2 mps 745 mmHg 89%
    07:00 +17°C° 0 mm 2 mps 746 mmHg 87%
    08:00 +18°C° 0 mm 3 mps 746 mmHg 79%
    09:00 +20°C° 0 mm 3 mps 745 mmHg 72%
    10:00 +21°C° 0 mm 3 mps 745 mmHg 64%
    11:00 +25°C° 0 mm 3 mps 745 mmHg 55%
    12:00 +28°C° 0 mm 3 mps 744 mmHg 45%
    13:00 +30°C° 0 mm 3 mps 744 mmHg 35%
    14:00 +30°C° 0 mm 4 mps 744 mmHg 34%
    15:00 +32°C° 0 mm 4 mps 743 mmHg 33%
    16:00 +32°C° 0 mm 5 mps 743 mmHg 32%
    17:00 +29°C° 0 mm 4 mps 743 mmHg 40%
    18:00 +26°C° 0 mm 3 mps 743 mmHg 49%
    19:00 +24°C° 0 mm 3 mps 743 mmHg 58%
    20:00 +21°C° 0 mm 2 mps 744 mmHg 69%
    21:00 +20°C° 0 mm 1 mps 744 mmHg 80%
    22:00 +16°C° 0 mm 1 mps 744 mmHg 92%
    23:00 +16°C° 0 mm 1 mps 744 mmHg 93%

    26 January, Friday

    Time Temperature Precipitation Wind Pressure Humidity
    00:00 +15°C° 0 mm 1 mps 744 mmHg 94%
    01:00 +15°C° 0 mm 1 mps 744 mmHg 95%
    02:00 +15°C° 0 mm 1 mps 744 mmHg 95%
    03:00 +14°C° 0 mm 1 mps 744 mmHg 95%
    04:00 +14°C° 0 mm 1 mps 744 mmHg 95%
    05:00 +15°C° 0 mm 1 mps 744 mmHg 88%
    06:00 +18°C° 0 mm 1 mps 744 mmHg 81%
    07:00 +19°C° 0 mm 1 mps 745 mmHg 74%
    08:00 +22°C° 0 mm 1 mps 745 mmHg 64%
    09:00 +24°C° 0 mm 2 mps 745 mmHg 54%
    10:00 +27°C° 0 mm 2 mps 745 mmHg 44%
    11:00 +28°C° 0 mm 2 mps 745 mmHg 41%
    12:00 +29°C° 0 mm 2 mps 745 mmHg 37%
    13:00 +30°C° 0 mm 3 mps 745 mmHg 34%
    14:00 +30°C° 0 mm 3 mps 745 mmHg 36%
    15:00 +29°C° 0 mm 3 mps 745 mmHg 38%
    16:00 +29°C° 0 mm 3 mps 745 mmHg 40%
    17:00 +27°C° 0 mm 3 mps 745 mmHg 49%
    18:00 +25°C° 0 mm 2 mps 745 mmHg 58%
    19:00 +23°C° 0 mm 2 mps 746 mmHg 67%
    20:00 +20°C° 0 mm 2 mps 746 mmHg 76%
    21:00 +19°C° 0 mm 1 mps 746 mmHg 86%
    22:00 +18°C° 0 mm 1 mps 746 mmHg 95%
    23:00 +18°C° 0 mm 1 mps 746 mmHg 96%

    27 January, Saturday

    Time Temperature Precipitation Wind Pressure Humidity
    00:00 +18°C° 0 mm 1 mps 746 mmHg 96%
    01:00 +18°C° 0 mm 1 mps 746 mmHg 97%
    02:00 +18°C° 0 mm 1 mps 745 mmHg 97%
    03:00 +18°C° 0 mm 1 mps 745 mmHg 98%
    04:00 +16°C° 0 mm 1 mps 745 mmHg 98%
    05:00 +19°C° 0 mm 1 mps 745 mmHg 92%
    06:00 +21°C° 0 mm 1 mps 745 mmHg 86%
    07:00 +22°C° 0 mm 1 mps 746 mmHg 80%
    08:00 +26°C° 0 mm 1 mps 746 mmHg 67%
    09:00 +29°C° 0 mm 1 mps 746 mmHg 55%
    10:00 +34°C° 0 mm 2 mps 746 mmHg 42%
    11:00 +36°C° 0 mm 2 mps 745 mmHg 38%
    12:00 +37°C° 0 mm 3 mps 745 mmHg 34%
    13:00 +39°C° 0 mm 3 mps 745 mmHg 29%
    14:00 +37°C° 0 mm 3 mps 745 mmHg 36%
    15:00 +35°C° 0 mm 3 mps 744 mmHg 42%
    16:00 +33°C° 0 mm 3 mps 744 mmHg 48%
    17:00 +31°C° 0 mm 3 mps 744 mmHg 55%
    18:00 +30°C° 0 mm 3 mps 744 mmHg 61%
    19:00 +28°C° 0 mm 2 mps 744 mmHg 68%
    20:00 +27°C° 0 mm 2 mps 744 mmHg 77%
    21:00 +25°C° 0 mm 2 mps 745 mmHg 87%
    22:00 +23°C° 0 mm 1 mps 745 mmHg 96%
    23:00 +23°C° 0 mm 1 mps 744 mmHg 96%

    28 January, Sunday

    Time Temperature Precipitation Wind Pressure Humidity
    00:00 +21°C° 0 mm 2 mps 744 mmHg 97%
    01:00 +21°C° 0 mm 2 mps 744 mmHg 97%
    02:00 +21°C° 0 mm 2 mps 743 mmHg 97%
    03:00 +21°C° 0 mm 2 mps 743 mmHg 97%
    04:00 +21°C° 0 mm 3 mps 743 mmHg 97%
    05:00 +22°C° 0 mm 3 mps 743 mmHg 91%
    06:00 +24°C° 0 mm 3 mps 743 mmHg 85%
    07:00 +25°C° 0 mm 3 mps 743 mmHg 79%
    08:00 +29°C° 0 mm 3 mps 743 mmHg 65%
    09:00 +33°C° 0 mm 3 mps 743 mmHg 50%
    10:00 +37°C° 0 mm 4 mps 742 mmHg 35%
    11:00 +38°C° 0 mm 4 mps 742 mmHg 31%
    12:00 +41°C° 0 mm 4 mps 742 mmHg 26%
    13:00 +43°C° 0 mm 4 mps 741 mmHg 21%
    14:00 +41°C° 0 mm 4 mps 741 mmHg 26%
    15:00 +38°C° 0 mm 4 mps 741 mmHg 30%
    16:00 +37°C° 0 mm 4 mps 740 mmHg 34%
    17:00 +34°C° 0.1 mm 4 mps 740 mmHg 45%
    18:00 +31°C° 0.1 mm 3 mps 740 mmHg 55%
    19:00 +28°C° 0.1 mm 3 mps 740 mmHg 66%
    20:00 +26°C° 0.1 mm 2 mps 740 mmHg 73%
    21:00 +25°C° 0.1 mm 2 mps 741 mmHg 80%
    22:00 +23°C° 0.1 mm 2 mps 741 mmHg 87%
    23:00 +23°C° 0 mm 1 mps 740 mmHg 88%
    Show more